GFSNGP_prec_precacc24_165.txt.gz
Total_Precipitation_Accumulation
0.13 0.16 0.19 0.15 0.08 0.09 0.24 0.26 0.31 0.10 0.04 0.02 0.05 0.01 0.00 0.00 0.00 0.00 0.00 0.00 0.00 0.00 0.00 0.00 0.00 0.00 0.00 0.00 0.00 0.00 0.00 0.00 0.00 0.00 0.00 0.00 0.00 0.00 0.00 0.00 0.00 0.00 0.00 0.00
0.13 0.04 0.10 0.16 0.05 0.02 0.03 0.03 0.04 0.01 0.01 0.00 0.05 0.01 0.00 0.00 0.00 0.00 0.00 0.00 0.00 0.00 0.00 0.00 0.00 0.00 0.00 0.00 0.00 0.00 0.00 0.00 0.00 0.00 0.00 0.00 0.00 0.00 0.00 0.00 0.00 0.00 0.00 0.00
0.15 0.04 0.20 0.33 0.01 0.00 0.00 0.00 0.00 0.00 0.00 0.00 0.00 0.00 0.00 0.00 0.00 0.00 0.00 0.00 0.00 0.00 0.00 0.00 0.00 0.00 0.00 0.00 0.00 0.00 0.00 0.00 0.00 0.00 0.00 0.00 0.00 0.00 0.00 0.00 0.00 0.00 0.00 0.00
0.26 0.14 0.47 0.12 0.00 0.00 0.00 0.00 0.00 0.00 0.00 0.00 0.00 0.00 0.00 0.00 0.00 0.00 0.00 0.00 0.00 0.00 0.00 0.00 0.00 0.00 0.00 0.00 0.00 0.00 0.00 0.00 0.00 0.00 0.00 0.00 0.00 0.00 0.00 0.00 0.00 0.00 0.00 0.00
0.39 0.26 0.13 0.00 0.00 0.00 0.02 0.00 0.00 0.00 0.00 0.00 0.00 0.00 0.00 0.00 0.00 0.00 0.00 0.00 0.00 0.00 0.00 0.00 0.00 0.00 0.00 0.00 0.00 0.00 0.00 0.00 0.00 0.00 0.00 0.00 0.00 0.00 0.00 0.00 0.00 0.00 0.00 0.00
0.37 0.30 0.13 0.00 0.00 0.00 0.00 0.00 0.00 0.00 0.00 0.00 0.00 0.00 0.00 0.00 0.00 0.00 0.00 0.00 0.00 0.00 0.00 0.00 0.00 0.00 0.00 0.00 0.00 0.00 0.00 0.00 0.00 0.00 0.00 0.00 0.00 0.00 0.00 0.00 0.00 0.01 0.00 0.00
0.22 0.21 0.05 0.00 0.00 0.00 0.00 0.00 0.00 0.00 0.00 0.00 0.00 0.00 0.00 0.00 0.00 0.00 0.00 0.00 0.00 0.00 0.00 0.00 0.00 0.00 0.00 0.00 0.00 0.00 0.00 0.00 0.00 0.00 0.00 0.00 0.00 0.00 0.00 0.00 0.00 0.00 0.00 0.00
0.29 0.39 0.11 0.00 0.00 0.00 0.00 0.00 0.00 0.00 0.00 0.00 0.00 0.00 0.00 0.00 0.00 0.00 0.00 0.00 0.00 0.00 0.00 0.00 0.00 0.00 0.00 0.00 0.00 0.00 0.00 0.00 0.00 0.00 0.00 0.00 0.00 0.00 0.00 0.00 0.00 0.00 0.00 0.00
0.12 0.09 0.01 0.00 0.00 0.00 0.00 0.00 0.00 0.00 0.00 0.00 0.00 0.00 0.00 0.00 0.00 0.00 0.00 0.00 0.00 0.00 0.00 0.00 0.00 0.00 0.00 0.00 0.00 0.00 0.00 0.00 0.00 0.00 0.00 0.00 0.00 0.01 0.02 0.01 0.00 0.00 0.00 0.00
0.11 0.02 0.00 0.00 0.00 0.02 0.01 0.00 0.00 0.00 0.00 0.00 0.00 0.00 0.00 0.00 0.00 0.00 0.00 0.00 0.00 0.00 0.00 0.00 0.00 0.00 0.00 0.00 0.00 0.00 0.00 0.00 0.00 0.00 0.01 0.01 0.01 0.01 0.01 0.01 0.00 0.00 0.00 0.00
0.13 0.03 0.01 0.00 0.00 0.01 0.01 0.01 0.01 0.00 0.00 0.00 0.00 0.00 0.00 0.00 0.00 0.00 0.00 0.00 0.00 0.00 0.00 0.00 0.00 0.00 0.00 0.00 0.00 0.00 0.00 0.00 0.00 0.00 0.00 0.00 0.01 0.01 0.01 0.00 0.00 0.00 0.01 0.00
0.07 0.04 0.05 0.03 0.01 0.01 0.00 0.00 0.00 0.00 0.00 0.00 0.00 0.00 0.00 0.00 0.00 0.00 0.00 0.00 0.00 0.00 0.00 0.00 0.00 0.00 0.00 0.00 0.00 0.00 0.00 0.00 0.01 0.00 0.00 0.00 0.01 0.02 0.02 0.01 0.00 0.00 0.00 0.00
0.01 0.00 0.00 0.01 0.00 0.01 0.02 0.01 0.01 0.00 0.00 0.00 0.00 0.00 0.00 0.00 0.00 0.00 0.00 0.00 0.00 0.00 0.00 0.00 0.00 0.00 0.00 0.00 0.00 0.00 0.00 0.00 0.00 0.00 0.00 0.00 0.01 0.01 0.02 0.03 0.01 0.00 0.00 0.00
0.00 0.00 0.01 0.00 0.00 0.00 0.00 0.00 0.02 0.03 0.01 0.01 0.01 0.01 0.00 0.00 0.00 0.00 0.00 0.00 0.00 0.00 0.00 0.00 0.00 0.00 0.00 0.00 0.00 0.00 0.00 0.00 0.00 0.00 0.00 0.00 0.00 0.00 0.01 0.01 0.03 0.01 0.00 0.00
0.00 0.00 0.00 0.00 0.00 0.00 0.00 0.00 0.00 0.00 0.01 0.01 0.02 0.01 0.01 0.01 0.00 0.00 0.00 0.00 0.00 0.00 0.00 0.00 0.00 0.00 0.00 0.00 0.00 0.00 0.00 0.00 0.00 0.00 0.00 0.00 0.00 0.00 0.00 0.00 0.00 0.01 0.01 0.01
0.00 0.00 0.00 0.00 0.00 0.00 0.00 0.00 0.00 0.01 0.02 0.03 0.05 0.06 0.02 0.00 0.00 0.00 0.00 0.00 0.00 0.00 0.00 0.00 0.00 0.00 0.00 0.00 0.00 0.00 0.00 0.00 0.00 0.00 0.00 0.00 0.00 0.01 0.01 0.01 0.01 0.01 0.00 0.00
0.00 0.01 0.01 0.00 0.00 0.01 0.02 0.03 0.04 0.04 0.03 0.03 0.04 0.04 0.04 0.01 0.01 0.00 0.00 0.00 0.00 0.00 0.00 0.00 0.00 0.00 0.00 0.00 0.00 0.00 0.00 0.00 0.00 0.00 0.00 0.00 0.00 0.00 0.00 0.01 0.01 0.00 0.00 0.00
0.06 0.06 0.06 0.03 0.01 0.00 0.01 0.04 0.06 0.08 0.07 0.06 0.03 0.02 0.02 0.02 0.01 0.01 0.00 0.00 0.01 0.01 0.00 0.00 0.00 0.00 0.00 0.00 0.00 0.00 0.00 0.00 0.00 0.00 0.00 0.00 0.00 0.00 0.00 0.00 0.00 0.00 0.00 0.01
0.02 0.01 0.02 0.06 0.05 0.02 0.02 0.03 0.06 0.08 0.09 0.06 0.03 0.03 0.03 0.03 0.02 0.02 0.01 0.02 0.03 0.04 0.05 0.01 0.02 0.00 0.00 0.00 0.00 0.00 0.00 0.00 0.00 0.00 0.00 0.00 0.01 0.00 0.00 0.01 0.01 0.01 0.01 0.01
0.00 0.00 0.01 0.02 0.02 0.01 0.01 0.01 0.02 0.03 0.03 0.04 0.02 0.03 0.03 0.03 0.02 0.02 0.02 0.03 0.03 0.03 0.02 0.02 0.02 0.01 0.00 0.00 0.00 0.00 0.00 0.00 0.00 0.00 0.01 0.01 0.01 0.02 0.02 0.02 0.01 0.01 0.02 0.01
0.00 0.00 0.00 0.00 0.00 0.00 0.01 0.01 0.01 0.02 0.01 0.02 0.03 0.03 0.02 0.02 0.01 0.01 0.01 0.03 0.04 0.02 0.01 0.00 0.01 0.01 0.01 0.00 0.00 0.00 0.00 0.00 0.00 0.00 0.00 0.01 0.01 0.02 0.03 0.02 0.02 0.02 0.03 0.03
0.00 0.00 0.00 0.00 0.00 0.00 0.02 0.06 0.08 0.13 0.15 0.11 0.06 0.04 0.04 0.05 0.06 0.07 0.07 0.04 0.03 0.01 0.00 0.00 0.00 0.00 0.00 0.00 0.00 0.00 0.00 0.00 0.01 0.01 0.01 0.01 0.02 0.02 0.02 0.02 0.03 0.03 0.03 0.03
0.00 0.02 0.02 0.04 0.05 0.05 0.04 0.02 0.01 0.02 0.07 0.15 0.19 0.19 0.16 0.12 0.10 0.08 0.06 0.04 0.01 0.01 0.00 0.00 0.00 0.00 0.01 0.01 0.01 0.01 0.00 0.00 0.00 0.01 0.01 0.01 0.02 0.03 0.03 0.03 0.03 0.03 0.03 0.03
0.00 0.00 0.01 0.02 0.02 0.02 0.03 0.04 0.02 0.00 0.00 0.00 0.01 0.03 0.04 0.03 0.02 0.01 0.00 0.00 0.00 0.00 0.01 0.01 0.01 0.00 0.01 0.01 0.02 0.01 0.01 0.01 0.01 0.02 0.02 0.02 0.03 0.03 0.03 0.03 0.02 0.02 0.02 0.02
0.00 0.00 0.00 0.00 0.01 0.01 0.01 0.01 0.01 0.00 0.00 0.00 0.00 0.00 0.00 0.00 0.01 0.02 0.00 0.00 0.00 0.00 0.01 0.02 0.01 0.01 0.01 0.02 0.02 0.02 0.01 0.01 0.01 0.01 0.01 0.02 0.02 0.02 0.02 0.01 0.01 0.02 0.02 0.02
0.00 0.00 0.00 0.00 0.00 0.00 0.00 0.01 0.01 0.01 0.00 0.01 0.01 0.01 0.02 0.02 0.02 0.00 0.01 0.00 0.00 0.01 0.01 0.01 0.01 0.02 0.03 0.02 0.02 0.02 0.01 0.01 0.01 0.01 0.02 0.02 0.02 0.01 0.01 0.01 0.02 0.02 0.02 0.02
0.00 0.00 0.01 0.01 0.01 0.00 0.00 0.00 0.01 0.01 0.01 0.01 0.01 0.02 0.03 0.03 0.02 0.01 0.01 0.01 0.02 0.03 0.02 0.01 0.01 0.03 0.02 0.02 0.01 0.02 0.01 0.01 0.01 0.01 0.02 0.01 0.01 0.01 0.01 0.01 0.01 0.01 0.02 0.02

GFSNGP_prec_precacc24_168.txt.gz
Total_Precipitation_Accumulation
0.14 0.16 0.19 0.20 0.15 0.17 0.33 0.29 0.32 0.11 0.04 0.02 0.06 0.01 0.00 0.00 0.00 0.00 0.00 0.00 0.00 0.00 0.00 0.00 0.00 0.00 0.00 0.00 0.00 0.00 0.00 0.00 0.00 0.01 0.00 0.00 0.00 0.00 0.00 0.00 0.00 0.00 0.00 0.00
0.14 0.04 0.11 0.17 0.06 0.03 0.06 0.06 0.06 0.01 0.01 0.00 0.05 0.01 0.00 0.00 0.00 0.00 0.00 0.00 0.00 0.00 0.00 0.00 0.00 0.00 0.00 0.00 0.00 0.00 0.00 0.00 0.00 0.00 0.00 0.00 0.00 0.00 0.00 0.00 0.00 0.00 0.00 0.00
0.17 0.04 0.21 0.32 0.01 0.00 0.00 0.00 0.00 0.00 0.00 0.00 0.00 0.00 0.00 0.00 0.00 0.00 0.00 0.00 0.00 0.00 0.00 0.00 0.00 0.00 0.00 0.00 0.00 0.00 0.00 0.00 0.00 0.00 0.00 0.00 0.00 0.00 0.00 0.00 0.00 0.00 0.00 0.00
0.28 0.14 0.51 0.13 0.02 0.04 0.04 0.03 0.01 0.00 0.00 0.00 0.00 0.00 0.00 0.00 0.00 0.00 0.00 0.00 0.00 0.00 0.00 0.00 0.00 0.00 0.00 0.00 0.00 0.00 0.00 0.00 0.00 0.00 0.00 0.00 0.00 0.00 0.00 0.00 0.00 0.00 0.00 0.00
0.41 0.26 0.14 0.00 0.00 0.01 0.03 0.02 0.00 0.00 0.00 0.00 0.01 0.00 0.00 0.00 0.00 0.00 0.00 0.00 0.00 0.00 0.00 0.00 0.00 0.00 0.00 0.00 0.00 0.00 0.00 0.00 0.00 0.00 0.00 0.00 0.00 0.00 0.00 0.00 0.00 0.00 0.00 0.00
0.37 0.30 0.14 0.00 0.00 0.00 0.01 0.01 0.00 0.00 0.00 0.00 0.00 0.00 0.00 0.00 0.00 0.00 0.00 0.00 0.00 0.00 0.00 0.00 0.00 0.00 0.00 0.00 0.00 0.00 0.00 0.00 0.00 0.00 0.00 0.00 0.00 0.00 0.00 0.00 0.00 0.00 0.00 0.00
0.26 0.24 0.05 0.00 0.00 0.00 0.05 0.01 0.00 0.00 0.00 0.00 0.00 0.00 0.00 0.00 0.00 0.00 0.00 0.00 0.00 0.00 0.00 0.00 0.00 0.00 0.00 0.00 0.00 0.00 0.00 0.00 0.00 0.00 0.00 0.00 0.00 0.00 0.00 0.00 0.00 0.00 0.00 0.00
0.42 0.50 0.16 0.00 0.01 0.01 0.00 0.00 0.00 0.00 0.00 0.00 0.00 0.00 0.00 0.00 0.00 0.00 0.00 0.00 0.00 0.00 0.00 0.00 0.00 0.00 0.00 0.00 0.00 0.00 0.00 0.00 0.00 0.00 0.00 0.00 0.00 0.00 0.00 0.00 0.00 0.00 0.00 0.00
0.35 0.18 0.02 0.00 0.01 0.01 0.01 0.00 0.00 0.01 0.02 0.02 0.01 0.00 0.00 0.00 0.00 0.00 0.00 0.00 0.00 0.00 0.00 0.00 0.00 0.00 0.01 0.02 0.03 0.04 0.02 0.02 0.00 0.00 0.00 0.00 0.00 0.01 0.01 0.01 0.00 0.00 0.00 0.00
0.12 0.03 0.01 0.01 0.02 0.06 0.02 0.00 0.00 0.00 0.00 0.00 0.00 0.00 0.00 0.00 0.00 0.00 0.00 0.00 0.00 0.00 0.00 0.00 0.00 0.00 0.00 0.02 0.03 0.02 0.00 0.00 0.00 0.00 0.01 0.00 0.00 0.01 0.01 0.01 0.01 0.00 0.00 0.00
0.13 0.03 0.02 0.01 0.00 0.01 0.01 0.01 0.01 0.00 0.00 0.00 0.00 0.00 0.00 0.00 0.00 0.00 0.00 0.00 0.00 0.00 0.00 0.00 0.00 0.00 0.00 0.00 0.00 0.00 0.00 0.00 0.00 0.00 0.00 0.00 0.01 0.01 0.01 0.00 0.00 0.00 0.00 0.00
0.13 0.08 0.16 0.21 0.13 0.01 0.00 0.00 0.00 0.00 0.00 0.00 0.00 0.00 0.00 0.00 0.00 0.00 0.00 0.00 0.00 0.00 0.00 0.00 0.00 0.00 0.00 0.00 0.00 0.00 0.00 0.00 0.01 0.00 0.00 0.00 0.01 0.02 0.02 0.01 0.00 0.00 0.00 0.00
0.03 0.01 0.02 0.08 0.03 0.01 0.02 0.01 0.01 0.01 0.01 0.00 0.01 0.00 0.00 0.00 0.00 0.00 0.00 0.00 0.00 0.00 0.00 0.00 0.00 0.00 0.00 0.00 0.00 0.00 0.00 0.00 0.00 0.00 0.00 0.00 0.01 0.01 0.02 0.04 0.02 0.00 0.00 0.00
0.04 0.13 0.08 0.01 0.00 0.00 0.00 0.00 0.02 0.04 0.07 0.07 0.04 0.01 0.00 0.00 0.00 0.00 0.00 0.00 0.00 0.00 0.00 0.00 0.00 0.00 0.00 0.00 0.00 0.00 0.00 0.00 0.00 0.00 0.00 0.00 0.00 0.00 0.01 0.01 0.02 0.01 0.00 0.00
0.00 0.01 0.01 0.00 0.00 0.00 0.00 0.00 0.00 0.03 0.03 0.02 0.04 0.05 0.03 0.02 0.01 0.00 0.00 0.01 0.01 0.01 0.00 0.00 0.00 0.00 0.00 0.00 0.00 0.00 0.00 0.00 0.00 0.00 0.00 0.00 0.00 0.00 0.01 0.00 0.01 0.01 0.01 0.01
0.00 0.00 0.00 0.00 0.00 0.00 0.00 0.00 0.00 0.01 0.03 0.04 0.05 0.06 0.02 0.02 0.06 0.06 0.03 0.01 0.00 0.01 0.00 0.00 0.00 0.00 0.00 0.00 0.00 0.00 0.00 0.00 0.00 0.00 0.00 0.00 0.00 0.01 0.01 0.01 0.01 0.01 0.01 0.01
0.01 0.01 0.01 0.00 0.00 0.01 0.02 0.03 0.04 0.04 0.03 0.04 0.05 0.05 0.04 0.01 0.01 0.00 0.00 0.00 0.00 0.00 0.00 0.00 0.00 0.00 0.00 0.00 0.00 0.00 0.00 0.00 0.00 0.00 0.00 0.00 0.00 0.00 0.01 0.01 0.01 0.00 0.00 0.01
0.06 0.06 0.06 0.03 0.01 0.00 0.01 0.04 0.06 0.08 0.07 0.06 0.04 0.03 0.02 0.02 0.01 0.01 0.00 0.00 0.00 0.00 0.00 0.00 0.00 0.00 0.00 0.00 0.00 0.00 0.00 0.00 0.00 0.00 0.00 0.00 0.00 0.00 0.00 0.00 0.00 0.00 0.01 0.01
0.02 0.01 0.02 0.06 0.05 0.02 0.02 0.03 0.06 0.08 0.09 0.06 0.03 0.03 0.03 0.03 0.02 0.01 0.01 0.01 0.00 0.01 0.02 0.00 0.01 0.00 0.00 0.00 0.00 0.00 0.00 0.00 0.00 0.00 0.00 0.01 0.01 0.01 0.01 0.01 0.01 0.01 0.02 0.01
0.00 0.00 0.01 0.02 0.02 0.01 0.01 0.01 0.02 0.03 0.03 0.04 0.03 0.03 0.03 0.03 0.01 0.01 0.01 0.01 0.00 0.01 0.00 0.00 0.01 0.01 0.00 0.00 0.00 0.00 0.00 0.00 0.00 0.00 0.01 0.01 0.02 0.03 0.03 0.02 0.01 0.02 0.03 0.02
0.00 0.00 0.00 0.00 0.00 0.00 0.01 0.01 0.01 0.02 0.01 0.03 0.03 0.03 0.02 0.02 0.00 0.00 0.00 0.01 0.01 0.00 0.00 0.00 0.01 0.01 0.01 0.00 0.00 0.00 0.00 0.00 0.00 0.01 0.01 0.02 0.02 0.03 0.04 0.03 0.02 0.03 0.04 0.03
0.00 0.00 0.00 0.00 0.00 0.00 0.02 0.06 0.08 0.13 0.15 0.11 0.06 0.04 0.04 0.05 0.06 0.06 0.08 0.07 0.06 0.03 0.01 0.01 0.00 0.00 0.00 0.00 0.00 0.00 0.00 0.00 0.01 0.01 0.01 0.02 0.02 0.03 0.03 0.03 0.04 0.04 0.04 0.03
0.00 0.02 0.03 0.04 0.05 0.06 0.04 0.02 0.01 0.02 0.07 0.15 0.19 0.21 0.20 0.18 0.16 0.14 0.14 0.16 0.13 0.09 0.04 0.02 0.01 0.01 0.01 0.01 0.01 0.00 0.00 0.00 0.01 0.02 0.01 0.02 0.02 0.03 0.04 0.04 0.04 0.04 0.04 0.05
0.00 0.00 0.01 0.02 0.02 0.02 0.03 0.04 0.02 0.01 0.00 0.01 0.02 0.04 0.07 0.10 0.11 0.09 0.07 0.06 0.04 0.03 0.02 0.02 0.01 0.00 0.01 0.01 0.01 0.01 0.01 0.01 0.02 0.02 0.03 0.03 0.04 0.04 0.05 0.04 0.04 0.04 0.04 0.04
0.00 0.00 0.00 0.00 0.00 0.01 0.01 0.01 0.00 0.01 0.01 0.01 0.00 0.01 0.00 0.00 0.01 0.03 0.01 0.01 0.01 0.01 0.02 0.02 0.01 0.01 0.02 0.02 0.02 0.02 0.02 0.01 0.01 0.02 0.02 0.03 0.04 0.04 0.05 0.02 0.02 0.02 0.02 0.03
0.00 0.00 0.00 0.00 0.00 0.00 0.00 0.00 0.01 0.01 0.00 0.01 0.02 0.01 0.01 0.01 0.01 0.00 0.01 0.01 0.01 0.01 0.01 0.02 0.02 0.03 0.03 0.03 0.03 0.02 0.02 0.02 0.01 0.02 0.03 0.03 0.03 0.03 0.02 0.02 0.02 0.02 0.02 0.03
0.00 0.00 0.01 0.01 0.01 0.00 0.00 0.00 0.01 0.01 0.00 0.00 0.01 0.02 0.03 0.02 0.01 0.00 0.01 0.01 0.02 0.03 0.02 0.02 0.02 0.03 0.03 0.03 0.03 0.03 0.02 0.02 0.02 0.02 0.03 0.02 0.02 0.02 0.02 0.02 0.02 0.02 0.03 0.03

GFSNGP_prec_precacc24_174.txt.gz
Total_Precipitation_Accumulation
0.18 0.16 0.19 0.22 0.15 0.17 0.39 0.39 0.55 0.19 0.08 0.04 0.07 0.02 0.00 0.00 0.00 0.00 0.00 0.00 0.00 0.00 0.00 0.00 0.00 0.00 0.00 0.00 0.00 0.00 0.00 0.00 0.00 0.02 0.05 0.06 0.07 0.05 0.04 0.01 0.00 0.00 0.00 0.00
0.17 0.04 0.12 0.18 0.06 0.04 0.06 0.07 0.08 0.02 0.02 0.00 0.05 0.01 0.00 0.00 0.00 0.00 0.00 0.00 0.00 0.00 0.00 0.00 0.00 0.00 0.01 0.01 0.03 0.03 0.02 0.01 0.01 0.05 0.09 0.11 0.12 0.11 0.04 0.00 0.00 0.00 0.00 0.00
0.24 0.05 0.21 0.28 0.01 0.00 0.01 0.01 0.02 0.02 0.00 0.00 0.00 0.00 0.00 0.00 0.00 0.00 0.00 0.00 0.00 0.00 0.00 0.00 0.00 0.00 0.00 0.00 0.00 0.02 0.06 0.04 0.02 0.05 0.10 0.11 0.09 0.08 0.03 0.00 0.00 0.00 0.00 0.00
0.31 0.13 0.45 0.10 0.02 0.04 0.04 0.03 0.01 0.00 0.00 0.00 0.00 0.00 0.00 0.00 0.00 0.00 0.00 0.00 0.00 0.00 0.00 0.00 0.00 0.00 0.00 0.00 0.00 0.00 0.02 0.05 0.04 0.05 0.12 0.11 0.06 0.04 0.03 0.01 0.00 0.00 0.00 0.00
0.34 0.22 0.13 0.00 0.00 0.01 0.04 0.02 0.02 0.04 0.07 0.08 0.04 0.04 0.05 0.01 0.01 0.01 0.00 0.00 0.00 0.00 0.00 0.00 0.00 0.00 0.00 0.00 0.00 0.00 0.00 0.00 0.01 0.02 0.08 0.07 0.04 0.05 0.04 0.01 0.00 0.00 0.00 0.00
0.33 0.27 0.10 0.00 0.00 0.00 0.02 0.01 0.00 0.02 0.03 0.03 0.03 0.02 0.05 0.06 0.03 0.01 0.01 0.00 0.00 0.00 0.00 0.00 0.00 0.00 0.00 0.00 0.00 0.00 0.00 0.00 0.00 0.00 0.04 0.05 0.03 0.03 0.02 0.00 0.00 0.00 0.00 0.00
0.46 0.36 0.07 0.00 0.00 0.00 0.08 0.03 0.02 0.03 0.04 0.01 0.01 0.03 0.03 0.01 0.00 0.00 0.01 0.01 0.00 0.00 0.00 0.00 0.00 0.00 0.00 0.00 0.00 0.00 0.00 0.00 0.00 0.00 0.01 0.02 0.02 0.03 0.00 0.00 0.00 0.00 0.00 0.00
0.56 0.75 0.33 0.08 0.14 0.21 0.18 0.14 0.10 0.04 0.03 0.02 0.01 0.00 0.01 0.01 0.00 0.00 0.00 0.00 0.00 0.00 0.00 0.00 0.00 0.00 0.01 0.02 0.01 0.01 0.00 0.00 0.00 0.01 0.02 0.03 0.06 0.07 0.02 0.00 0.00 0.00 0.00 0.00
0.47 0.32 0.11 0.04 0.12 0.24 0.16 0.17 0.17 0.08 0.03 0.04 0.04 0.01 0.00 0.00 0.00 0.00 0.00 0.00 0.00 0.00 0.00 0.00 0.00 0.00 0.01 0.04 0.06 0.09 0.08 0.04 0.02 0.01 0.03 0.05 0.08 0.10 0.08 0.02 0.00 0.00 0.00 0.00
0.17 0.04 0.01 0.02 0.03 0.08 0.07 0.08 0.23 0.12 0.04 0.02 0.02 0.01 0.02 0.00 0.00 0.00 0.00 0.00 0.00 0.00 0.00 0.00 0.00 0.00 0.01 0.04 0.07 0.12 0.24 0.25 0.15 0.09 0.10 0.11 0.10 0.11 0.09 0.03 0.01 0.00 0.00 0.00
0.13 0.03 0.02 0.01 0.01 0.03 0.06 0.08 0.05 0.02 0.02 0.00 0.00 0.00 0.00 0.00 0.00 0.00 0.00 0.00 0.00 0.00 0.00 0.00 0.00 0.00 0.02 0.07 0.16 0.18 0.26 0.40 0.39 0.25 0.17 0.12 0.09 0.09 0.05 0.01 0.00 0.00 0.00 0.00
0.13 0.08 0.16 0.22 0.24 0.20 0.20 0.07 0.01 0.01 0.00 0.00 0.00 0.00 0.00 0.00 0.00 0.01 0.00 0.00 0.00 0.00 0.00 0.00 0.00 0.00 0.00 0.02 0.15 0.22 0.23 0.26 0.28 0.22 0.12 0.06 0.05 0.04 0.02 0.01 0.00 0.00 0.00 0.00
0.03 0.01 0.02 0.09 0.10 0.06 0.09 0.04 0.06 0.06 0.01 0.00 0.01 0.00 0.00 0.00 0.03 0.02 0.00 0.00 0.00 0.00 0.00 0.00 0.00 0.00 0.00 0.00 0.01 0.01 0.03 0.04 0.04 0.03 0.02 0.01 0.01 0.01 0.03 0.04 0.02 0.00 0.00 0.00
0.04 0.14 0.12 0.02 0.01 0.08 0.13 0.07 0.09 0.10 0.07 0.07 0.07 0.04 0.03 0.04 0.02 0.00 0.00 0.00 0.00 0.00 0.00 0.00 0.00 0.00 0.00 0.00 0.01 0.00 0.00 0.00 0.00 0.00 0.00 0.00 0.00 0.00 0.01 0.02 0.03 0.02 0.01 0.00
0.00 0.01 0.05 0.02 0.00 0.01 0.00 0.01 0.02 0.05 0.03 0.02 0.04 0.08 0.11 0.09 0.02 0.00 0.00 0.01 0.01 0.01 0.00 0.00 0.00 0.00 0.00 0.00 0.00 0.00 0.00 0.00 0.00 0.00 0.00 0.00 0.00 0.00 0.01 0.00 0.01 0.01 0.02 0.03
0.01 0.02 0.04 0.02 0.00 0.00 0.00 0.00 0.00 0.01 0.03 0.04 0.05 0.06 0.02 0.02 0.06 0.08 0.08 0.09 0.16 0.13 0.09 0.05 0.02 0.00 0.00 0.00 0.00 0.00 0.00 0.00 0.00 0.00 0.00 0.00 0.00 0.01 0.01 0.01 0.01 0.01 0.01 0.01
0.17 0.10 0.05 0.04 0.01 0.01 0.02 0.03 0.04 0.04 0.03 0.04 0.05 0.06 0.04 0.01 0.01 0.00 0.01 0.01 0.02 0.06 0.07 0.03 0.02 0.01 0.00 0.00 0.00 0.00 0.00 0.00 0.00 0.00 0.00 0.00 0.00 0.00 0.01 0.01 0.01 0.01 0.00 0.01
0.14 0.29 0.13 0.04 0.00 0.00 0.01 0.04 0.06 0.08 0.07 0.06 0.05 0.05 0.02 0.02 0.01 0.01 0.01 0.02 0.02 0.02 0.03 0.00 0.00 0.00 0.00 0.00 0.00 0.00 0.00 0.00 0.00 0.00 0.00 0.00 0.00 0.00 0.00 0.00 0.01 0.00 0.01 0.01
0.01 0.00 0.00 0.02 0.03 0.01 0.01 0.03 0.06 0.08 0.09 0.06 0.04 0.03 0.04 0.03 0.02 0.01 0.01 0.01 0.01 0.02 0.02 0.01 0.00 0.01 0.00 0.00 0.00 0.00 0.00 0.00 0.00 0.00 0.00 0.01 0.02 0.01 0.01 0.01 0.01 0.01 0.02 0.01
0.00 0.00 0.00 0.01 0.02 0.01 0.01 0.01 0.02 0.03 0.03 0.04 0.03 0.03 0.03 0.03 0.01 0.01 0.01 0.01 0.01 0.01 0.00 0.00 0.00 0.02 0.02 0.00 0.00 0.00 0.00 0.00 0.00 0.00 0.01 0.02 0.03 0.04 0.04 0.03 0.02 0.04 0.05 0.02
0.00 0.00 0.00 0.00 0.00 0.00 0.01 0.01 0.01 0.02 0.01 0.03 0.03 0.03 0.03 0.02 0.00 0.00 0.00 0.00 0.00 0.00 0.00 0.00 0.00 0.00 0.00 0.00 0.00 0.00 0.00 0.00 0.01 0.01 0.02 0.03 0.04 0.06 0.06 0.05 0.04 0.05 0.05 0.03
0.00 0.00 0.00 0.00 0.00 0.00 0.02 0.06 0.08 0.13 0.15 0.11 0.06 0.04 0.04 0.05 0.06 0.07 0.08 0.07 0.05 0.03 0.02 0.01 0.02 0.02 0.02 0.01 0.01 0.01 0.01 0.01 0.02 0.02 0.02 0.03 0.04 0.05 0.06 0.05 0.05 0.06 0.05 0.04
0.01 0.02 0.03 0.04 0.05 0.06 0.04 0.02 0.01 0.02 0.07 0.15 0.20 0.21 0.21 0.20 0.18 0.16 0.17 0.20 0.19 0.18 0.17 0.20 0.17 0.11 0.06 0.04 0.02 0.01 0.00 0.00 0.01 0.01 0.01 0.02 0.03 0.04 0.05 0.05 0.05 0.05 0.05 0.05
0.00 0.00 0.02 0.02 0.02 0.02 0.03 0.04 0.02 0.01 0.01 0.01 0.03 0.05 0.07 0.10 0.14 0.17 0.17 0.17 0.16 0.15 0.14 0.12 0.08 0.06 0.03 0.02 0.01 0.00 0.00 0.01 0.01 0.01 0.02 0.03 0.04 0.04 0.05 0.05 0.05 0.05 0.05 0.05
0.00 0.00 0.00 0.00 0.00 0.01 0.01 0.01 0.01 0.01 0.01 0.01 0.02 0.02 0.02 0.01 0.02 0.05 0.05 0.07 0.06 0.04 0.05 0.05 0.04 0.04 0.03 0.03 0.02 0.01 0.01 0.01 0.01 0.02 0.02 0.03 0.04 0.04 0.06 0.03 0.02 0.02 0.03 0.04
0.00 0.00 0.00 0.00 0.00 0.00 0.01 0.00 0.01 0.01 0.01 0.02 0.03 0.02 0.01 0.01 0.01 0.01 0.01 0.01 0.02 0.02 0.03 0.05 0.05 0.04 0.04 0.04 0.03 0.02 0.02 0.02 0.01 0.02 0.03 0.03 0.03 0.04 0.04 0.03 0.03 0.03 0.03 0.04
0.00 0.00 0.01 0.01 0.01 0.00 0.00 0.00 0.01 0.01 0.01 0.00 0.02 0.03 0.01 0.01 0.01 0.01 0.01 0.02 0.02 0.03 0.03 0.04 0.04 0.03 0.04 0.04 0.03 0.03 0.02 0.02 0.02 0.02 0.03 0.03 0.03 0.03 0.03 0.03 0.03 0.04 0.03 0.03

GFSNGP_prec_precacc24_180.txt.gz
Total_Precipitation_Accumulation
0.17 0.16 0.19 0.23 0.16 0.18 0.40 0.40 0.60 0.19 0.09 0.06 0.10 0.04 0.01 0.00 0.00 0.00 0.00 0.00 0.01 0.01 0.02 0.01 0.01 0.01 0.00 0.00 0.01 0.02 0.05 0.08 0.11 0.17 0.26 0.26 0.23 0.14 0.06 0.03 0.02 0.01 0.01 0.00
0.11 0.03 0.09 0.15 0.05 0.04 0.06 0.06 0.08 0.02 0.02 0.00 0.06 0.02 0.00 0.00 0.00 0.00 0.00 0.00 0.00 0.00 0.00 0.00 0.00 0.00 0.01 0.01 0.03 0.03 0.02 0.03 0.09 0.12 0.14 0.15 0.16 0.13 0.08 0.05 0.02 0.01 0.01 0.00
0.20 0.05 0.15 0.16 0.01 0.00 0.01 0.01 0.02 0.02 0.00 0.00 0.00 0.00 0.00 0.00 0.00 0.00 0.00 0.00 0.00 0.00 0.00 0.00 0.00 0.00 0.00 0.00 0.00 0.02 0.07 0.05 0.04 0.08 0.11 0.12 0.11 0.12 0.11 0.06 0.02 0.01 0.01 0.01
0.28 0.11 0.27 0.06 0.02 0.04 0.04 0.03 0.02 0.00 0.00 0.00 0.00 0.00 0.00 0.00 0.00 0.00 0.00 0.00 0.00 0.01 0.02 0.02 0.01 0.00 0.00 0.00 0.00 0.00 0.02 0.05 0.05 0.06 0.13 0.12 0.09 0.09 0.10 0.08 0.06 0.04 0.02 0.02
0.28 0.18 0.11 0.00 0.00 0.01 0.07 0.06 0.04 0.06 0.07 0.09 0.04 0.04 0.05 0.01 0.01 0.01 0.01 0.00 0.01 0.01 0.02 0.02 0.02 0.01 0.00 0.00 0.00 0.00 0.00 0.00 0.01 0.03 0.09 0.11 0.08 0.10 0.12 0.11 0.14 0.12 0.07 0.03
0.22 0.22 0.08 0.00 0.00 0.01 0.05 0.07 0.02 0.03 0.04 0.04 0.04 0.03 0.06 0.07 0.03 0.02 0.02 0.01 0.00 0.01 0.00 0.02 0.02 0.01 0.00 0.00 0.00 0.00 0.00 0.00 0.00 0.01 0.06 0.11 0.11 0.13 0.18 0.15 0.17 0.20 0.16 0.09
0.41 0.38 0.10 0.07 0.02 0.01 0.16 0.14 0.04 0.04 0.05 0.03 0.06 0.10 0.06 0.03 0.02 0.01 0.04 0.07 0.05 0.02 0.01 0.00 0.00 0.00 0.00 0.00 0.00 0.00 0.00 0.01 0.01 0.02 0.04 0.11 0.15 0.18 0.22 0.21 0.21 0.20 0.17 0.11
0.53 0.71 0.39 0.17 0.18 0.28 0.30 0.20 0.13 0.08 0.05 0.09 0.11 0.12 0.09 0.03 0.02 0.02 0.03 0.05 0.11 0.14 0.07 0.02 0.00 0.00 0.01 0.02 0.01 0.01 0.00 0.00 0.01 0.02 0.08 0.15 0.24 0.32 0.32 0.28 0.24 0.17 0.10 0.06
0.47 0.36 0.20 0.15 0.14 0.26 0.19 0.18 0.17 0.15 0.25 0.36 0.22 0.05 0.01 0.00 0.00 0.00 0.00 0.00 0.01 0.04 0.04 0.01 0.00 0.00 0.01 0.04 0.06 0.09 0.08 0.04 0.03 0.05 0.13 0.23 0.35 0.42 0.42 0.39 0.28 0.20 0.13 0.07
0.14 0.04 0.01 0.02 0.03 0.09 0.07 0.08 0.23 0.18 0.17 0.12 0.09 0.02 0.02 0.00 0.00 0.00 0.00 0.01 0.00 0.00 0.00 0.00 0.00 0.00 0.01 0.04 0.07 0.12 0.25 0.28 0.19 0.16 0.25 0.37 0.43 0.43 0.39 0.39 0.32 0.25 0.19 0.16
0.07 0.03 0.02 0.01 0.01 0.03 0.06 0.08 0.05 0.02 0.03 0.04 0.04 0.00 0.00 0.00 0.00 0.00 0.00 0.00 0.01 0.01 0.00 0.00 0.00 0.00 0.02 0.07 0.16 0.18 0.26 0.43 0.51 0.45 0.41 0.44 0.44 0.38 0.37 0.39 0.34 0.31 0.22 0.16
0.12 0.08 0.16 0.22 0.24 0.20 0.20 0.07 0.01 0.01 0.05 0.09 0.02 0.00 0.00 0.00 0.00 0.01 0.00 0.00 0.00 0.00 0.00 0.00 0.00 0.00 0.00 0.02 0.15 0.22 0.24 0.29 0.38 0.44 0.47 0.49 0.48 0.47 0.49 0.46 0.43 0.30 0.14 0.06
0.03 0.01 0.02 0.09 0.10 0.06 0.09 0.05 0.08 0.08 0.10 0.07 0.01 0.00 0.00 0.00 0.03 0.02 0.00 0.00 0.00 0.00 0.00 0.00 0.00 0.00 0.00 0.00 0.01 0.01 0.03 0.07 0.14 0.20 0.25 0.28 0.33 0.37 0.40 0.44 0.33 0.17 0.08 0.02
0.05 0.14 0.12 0.02 0.01 0.08 0.13 0.11 0.18 0.15 0.12 0.11 0.07 0.04 0.03 0.04 0.02 0.00 0.00 0.00 0.00 0.00 0.00 0.00 0.00 0.00 0.00 0.00 0.04 0.03 0.04 0.07 0.12 0.13 0.10 0.10 0.11 0.15 0.19 0.24 0.20 0.15 0.10 0.02
0.00 0.01 0.05 0.02 0.00 0.01 0.00 0.01 0.07 0.16 0.04 0.03 0.04 0.08 0.11 0.09 0.02 0.00 0.00 0.01 0.01 0.01 0.00 0.00 0.00 0.00 0.01 0.04 0.08 0.08 0.06 0.05 0.07 0.10 0.09 0.09 0.08 0.09 0.11 0.11 0.10 0.09 0.06 0.05
0.01 0.02 0.04 0.02 0.00 0.00 0.01 0.00 0.01 0.02 0.03 0.04 0.05 0.06 0.02 0.02 0.06 0.08 0.08 0.09 0.16 0.13 0.09 0.05 0.03 0.03 0.05 0.09 0.12 0.13 0.09 0.08 0.09 0.10 0.08 0.09 0.07 0.05 0.05 0.05 0.04 0.03 0.01 0.02
0.17 0.10 0.05 0.04 0.01 0.01 0.04 0.04 0.03 0.00 0.02 0.04 0.05 0.06 0.04 0.01 0.01 0.00 0.01 0.01 0.02 0.07 0.07 0.04 0.08 0.08 0.06 0.07 0.07 0.04 0.03 0.04 0.06 0.08 0.06 0.04 0.03 0.01 0.01 0.01 0.01 0.01 0.00 0.01
0.15 0.36 0.19 0.12 0.01 0.02 0.03 0.00 0.00 0.00 0.02 0.04 0.05 0.05 0.03 0.02 0.01 0.01 0.01 0.02 0.02 0.06 0.14 0.02 0.04 0.08 0.09 0.07 0.03 0.01 0.00 0.00 0.01 0.01 0.01 0.01 0.00 0.00 0.00 0.00 0.00 0.00 0.01 0.01
0.09 0.24 0.07 0.08 0.01 0.00 0.00 0.00 0.00 0.01 0.04 0.05 0.04 0.03 0.04 0.03 0.02 0.02 0.01 0.02 0.01 0.03 0.11 0.21 0.08 0.03 0.01 0.01 0.00 0.00 0.00 0.00 0.00 0.00 0.00 0.01 0.02 0.01 0.01 0.01 0.01 0.02 0.03 0.02
0.13 0.02 0.01 0.00 0.00 0.00 0.00 0.00 0.00 0.01 0.02 0.03 0.03 0.03 0.03 0.03 0.01 0.01 0.01 0.01 0.01 0.01 0.00 0.03 0.15 0.21 0.27 0.11 0.02 0.00 0.00 0.00 0.00 0.00 0.01 0.02 0.03 0.04 0.04 0.03 0.03 0.06 0.06 0.03
0.00 0.00 0.00 0.00 0.00 0.00 0.00 0.01 0.01 0.02 0.00 0.02 0.03 0.03 0.03 0.02 0.01 0.00 0.00 0.00 0.00 0.00 0.00 0.01 0.02 0.06 0.13 0.15 0.08 0.00 0.00 0.00 0.01 0.01 0.02 0.03 0.05 0.07 0.08 0.07 0.07 0.08 0.08 0.06
0.00 0.00 0.00 0.00 0.00 0.00 0.01 0.04 0.07 0.13 0.15 0.11 0.06 0.04 0.04 0.05 0.06 0.07 0.09 0.08 0.06 0.03 0.02 0.02 0.03 0.02 0.03 0.04 0.03 0.03 0.01 0.00 0.01 0.02 0.03 0.04 0.05 0.07 0.07 0.07 0.07 0.08 0.07 0.06
0.01 0.00 0.00 0.00 0.01 0.02 0.01 0.01 0.01 0.02 0.07 0.16 0.20 0.22 0.21 0.20 0.19 0.16 0.18 0.23 0.22 0.22 0.20 0.23 0.21 0.15 0.11 0.07 0.03 0.01 0.01 0.01 0.01 0.02 0.02 0.04 0.05 0.05 0.06 0.06 0.06 0.06 0.06 0.06
0.01 0.00 0.01 0.01 0.01 0.01 0.02 0.03 0.02 0.01 0.01 0.02 0.03 0.06 0.08 0.11 0.14 0.18 0.18 0.20 0.20 0.20 0.20 0.19 0.15 0.13 0.08 0.05 0.03 0.01 0.01 0.01 0.01 0.02 0.02 0.03 0.04 0.05 0.06 0.05 0.06 0.06 0.06 0.06
0.00 0.00 0.00 0.00 0.00 0.00 0.00 0.01 0.01 0.01 0.01 0.01 0.02 0.03 0.02 0.02 0.02 0.07 0.07 0.09 0.09 0.08 0.11 0.14 0.13 0.11 0.09 0.07 0.04 0.02 0.01 0.01 0.01 0.02 0.02 0.02 0.03 0.04 0.05 0.03 0.03 0.03 0.04 0.03
0.00 0.00 0.00 0.00 0.00 0.00 0.01 0.01 0.00 0.00 0.01 0.02 0.03 0.03 0.02 0.02 0.03 0.03 0.03 0.04 0.05 0.05 0.07 0.10 0.09 0.07 0.06 0.04 0.03 0.02 0.02 0.01 0.01 0.01 0.02 0.03 0.03 0.03 0.03 0.03 0.03 0.03 0.03 0.04
0.00 0.00 0.00 0.00 0.00 0.00 0.00 0.00 0.01 0.01 0.01 0.01 0.03 0.04 0.03 0.02 0.02 0.02 0.03 0.04 0.04 0.04 0.05 0.07 0.06 0.04 0.04 0.04 0.03 0.02 0.01 0.01 0.01 0.01 0.03 0.03 0.03 0.03 0.03 0.04 0.05 0.07 0.06 0.05

GFSNGP_prec_precacc24_183.txt.gz
Total_Precipitation_Accumulation
0.10 0.06 0.11 0.20 0.15 0.15 0.28 0.29 0.51 0.18 0.09 0.06 0.10 0.04 0.01 0.00 0.00 0.00 0.00 0.00 0.01 0.01 0.02 0.03 0.04 0.09 0.14 0.12 0.05 0.03 0.05 0.09 0.14 0.22 0.32 0.35 0.33 0.28 0.21 0.12 0.07 0.03 0.01 0.00
0.10 0.02 0.03 0.06 0.04 0.03 0.06 0.06 0.08 0.02 0.02 0.00 0.06 0.02 0.00 0.00 0.00 0.00 0.00 0.00 0.00 0.00 0.00 0.00 0.01 0.01 0.03 0.10 0.18 0.18 0.04 0.04 0.12 0.21 0.27 0.29 0.35 0.31 0.21 0.11 0.04 0.02 0.01 0.00
0.18 0.05 0.10 0.07 0.00 0.00 0.00 0.01 0.02 0.02 0.00 0.00 0.00 0.00 0.00 0.00 0.00 0.00 0.00 0.00 0.00 0.00 0.00 0.00 0.00 0.00 0.00 0.01 0.03 0.11 0.19 0.16 0.11 0.23 0.25 0.26 0.21 0.19 0.18 0.11 0.04 0.01 0.01 0.02
0.16 0.06 0.21 0.05 0.02 0.04 0.04 0.03 0.02 0.02 0.01 0.00 0.00 0.00 0.00 0.00 0.00 0.00 0.00 0.00 0.00 0.01 0.02 0.02 0.01 0.00 0.00 0.00 0.00 0.00 0.03 0.10 0.14 0.19 0.25 0.19 0.13 0.11 0.12 0.09 0.06 0.04 0.02 0.03
0.14 0.12 0.10 0.00 0.00 0.02 0.09 0.08 0.05 0.08 0.08 0.09 0.04 0.04 0.05 0.01 0.01 0.01 0.01 0.00 0.01 0.01 0.02 0.02 0.02 0.01 0.00 0.00 0.00 0.00 0.00 0.00 0.02 0.07 0.15 0.17 0.12 0.11 0.12 0.11 0.14 0.12 0.07 0.04
0.15 0.17 0.06 0.00 0.00 0.01 0.06 0.07 0.02 0.03 0.04 0.04 0.04 0.03 0.06 0.07 0.03 0.02 0.02 0.01 0.00 0.01 0.01 0.02 0.02 0.01 0.01 0.00 0.00 0.00 0.00 0.00 0.00 0.01 0.07 0.12 0.13 0.16 0.19 0.15 0.17 0.20 0.18 0.10
0.37 0.34 0.09 0.07 0.02 0.01 0.16 0.15 0.04 0.04 0.05 0.03 0.06 0.10 0.09 0.10 0.07 0.02 0.04 0.07 0.05 0.02 0.01 0.01 0.00 0.00 0.01 0.01 0.03 0.00 0.00 0.01 0.01 0.02 0.04 0.12 0.15 0.20 0.24 0.22 0.22 0.23 0.22 0.19
0.50 0.66 0.36 0.17 0.18 0.28 0.30 0.20 0.13 0.08 0.05 0.09 0.11 0.16 0.20 0.15 0.04 0.02 0.03 0.05 0.11 0.14 0.11 0.08 0.04 0.01 0.01 0.02 0.01 0.01 0.00 0.00 0.01 0.02 0.08 0.15 0.24 0.34 0.36 0.31 0.26 0.23 0.18 0.17
0.46 0.35 0.20 0.15 0.14 0.26 0.19 0.18 0.17 0.15 0.25 0.36 0.25 0.16 0.11 0.04 0.02 0.01 0.00 0.00 0.02 0.08 0.15 0.14 0.09 0.07 0.02 0.04 0.06 0.09 0.08 0.04 0.03 0.05 0.13 0.23 0.35 0.43 0.49 0.48 0.33 0.26 0.21 0.16
0.12 0.03 0.01 0.02 0.03 0.09 0.07 0.08 0.23 0.18 0.17 0.12 0.13 0.09 0.05 0.01 0.00 0.00 0.02 0.01 0.01 0.03 0.05 0.08 0.06 0.08 0.03 0.04 0.07 0.12 0.25 0.28 0.19 0.16 0.25 0.37 0.43 0.44 0.45 0.47 0.38 0.31 0.26 0.27
0.03 0.01 0.01 0.01 0.01 0.03 0.06 0.08 0.05 0.02 0.03 0.04 0.11 0.09 0.01 0.01 0.00 0.00 0.01 0.01 0.01 0.02 0.04 0.03 0.01 0.01 0.02 0.08 0.16 0.18 0.26 0.43 0.51 0.45 0.41 0.44 0.46 0.42 0.44 0.45 0.37 0.36 0.31 0.29
0.11 0.05 0.12 0.20 0.24 0.20 0.20 0.07 0.01 0.01 0.05 0.09 0.08 0.04 0.01 0.00 0.00 0.01 0.00 0.00 0.00 0.00 0.03 0.01 0.01 0.00 0.00 0.02 0.15 0.22 0.24 0.29 0.38 0.45 0.48 0.51 0.52 0.56 0.61 0.57 0.57 0.47 0.32 0.26
0.03 0.01 0.02 0.09 0.10 0.06 0.09 0.05 0.08 0.08 0.10 0.10 0.05 0.01 0.00 0.00 0.03 0.02 0.00 0.00 0.00 0.00 0.00 0.00 0.00 0.00 0.00 0.00 0.01 0.01 0.03 0.07 0.15 0.21 0.26 0.31 0.38 0.43 0.47 0.56 0.49 0.33 0.25 0.14
0.05 0.15 0.14 0.02 0.01 0.08 0.13 0.10 0.18 0.15 0.12 0.20 0.14 0.05 0.03 0.04 0.02 0.00 0.00 0.00 0.00 0.00 0.00 0.00 0.00 0.00 0.00 0.00 0.04 0.03 0.04 0.08 0.12 0.14 0.12 0.14 0.15 0.18 0.23 0.30 0.28 0.25 0.21 0.09
0.00 0.02 0.06 0.02 0.00 0.01 0.00 0.01 0.08 0.20 0.09 0.09 0.04 0.08 0.11 0.09 0.02 0.00 0.00 0.01 0.01 0.01 0.00 0.00 0.00 0.01 0.01 0.04 0.09 0.09 0.07 0.07 0.09 0.12 0.11 0.12 0.11 0.13 0.17 0.18 0.17 0.19 0.18 0.17
0.01 0.03 0.05 0.02 0.00 0.00 0.01 0.00 0.03 0.15 0.10 0.02 0.02 0.04 0.02 0.02 0.06 0.08 0.08 0.09 0.16 0.13 0.09 0.05 0.04 0.05 0.07 0.11 0.15 0.16 0.12 0.11 0.11 0.12 0.10 0.11 0.11 0.11 0.12 0.12 0.12 0.10 0.06 0.05
0.17 0.10 0.05 0.04 0.01 0.01 0.04 0.09 0.19 0.16 0.05 0.01 0.02 0.05 0.03 0.01 0.01 0.00 0.01 0.01 0.02 0.07 0.07 0.04 0.09 0.11 0.12 0.11 0.10 0.09 0.06 0.07 0.10 0.14 0.13 0.11 0.10 0.10 0.09 0.07 0.05 0.04 0.03 0.02
0.15 0.36 0.19 0.12 0.01 0.02 0.06 0.12 0.13 0.04 0.00 0.00 0.02 0.04 0.03 0.02 0.01 0.01 0.01 0.02 0.02 0.06 0.15 0.03 0.05 0.11 0.13 0.12 0.09 0.07 0.03 0.03 0.02 0.03 0.03 0.04 0.05 0.04 0.04 0.03 0.02 0.01 0.02 0.02
0.14 0.31 0.12 0.10 0.02 0.03 0.04 0.01 0.00 0.00 0.01 0.01 0.02 0.03 0.04 0.03 0.02 0.02 0.01 0.02 0.02 0.03 0.11 0.21 0.09 0.04 0.02 0.02 0.02 0.02 0.02 0.01 0.00 0.00 0.00 0.01 0.02 0.01 0.01 0.01 0.01 0.02 0.03 0.02
0.26 0.14 0.14 0.05 0.01 0.01 0.00 0.01 0.01 0.01 0.01 0.01 0.02 0.02 0.03 0.03 0.01 0.01 0.01 0.02 0.01 0.01 0.00 0.03 0.15 0.22 0.28 0.13 0.02 0.00 0.00 0.00 0.00 0.00 0.01 0.01 0.03 0.04 0.03 0.03 0.03 0.05 0.07 0.04
0.01 0.01 0.01 0.00 0.00 0.00 0.00 0.00 0.00 0.01 0.01 0.01 0.01 0.02 0.02 0.02 0.01 0.00 0.00 0.00 0.00 0.00 0.01 0.01 0.03 0.06 0.13 0.18 0.16 0.04 0.00 0.00 0.01 0.02 0.02 0.03 0.04 0.06 0.07 0.06 0.06 0.08 0.08 0.06
0.00 0.00 0.00 0.00 0.00 0.01 0.01 0.00 0.00 0.04 0.10 0.11 0.06 0.04 0.04 0.05 0.06 0.07 0.09 0.08 0.07 0.05 0.05 0.05 0.04 0.02 0.03 0.05 0.07 0.07 0.05 0.02 0.02 0.02 0.03 0.04 0.05 0.06 0.07 0.07 0.07 0.08 0.07 0.06
0.01 0.00 0.00 0.00 0.00 0.01 0.01 0.00 0.01 0.01 0.06 0.16 0.20 0.22 0.22 0.21 0.19 0.16 0.18 0.23 0.23 0.25 0.24 0.27 0.25 0.17 0.12 0.08 0.04 0.02 0.02 0.01 0.02 0.03 0.03 0.04 0.05 0.06 0.06 0.06 0.06 0.07 0.06 0.06
0.01 0.00 0.00 0.00 0.01 0.00 0.01 0.01 0.01 0.01 0.01 0.02 0.04 0.06 0.08 0.11 0.14 0.18 0.19 0.22 0.23 0.23 0.24 0.23 0.19 0.16 0.10 0.07 0.05 0.04 0.03 0.02 0.02 0.02 0.03 0.03 0.04 0.05 0.06 0.05 0.06 0.06 0.06 0.05
0.00 0.00 0.00 0.00 0.00 0.00 0.00 0.00 0.01 0.01 0.01 0.01 0.02 0.03 0.03 0.02 0.03 0.08 0.08 0.10 0.11 0.11 0.15 0.19 0.17 0.15 0.13 0.10 0.06 0.03 0.02 0.01 0.01 0.02 0.02 0.02 0.04 0.04 0.06 0.03 0.03 0.04 0.04 0.03
0.00 0.00 0.00 0.00 0.00 0.00 0.01 0.01 0.00 0.00 0.01 0.02 0.03 0.03 0.03 0.03 0.04 0.04 0.05 0.06 0.08 0.08 0.10 0.14 0.13 0.10 0.08 0.05 0.04 0.02 0.02 0.01 0.01 0.01 0.02 0.03 0.03 0.03 0.03 0.03 0.03 0.03 0.02 0.03
0.00 0.00 0.00 0.00 0.00 0.00 0.00 0.00 0.01 0.01 0.01 0.01 0.04 0.04 0.03 0.03 0.03 0.03 0.03 0.04 0.05 0.06 0.08 0.09 0.07 0.05 0.04 0.04 0.03 0.02 0.01 0.01 0.01 0.02 0.03 0.03 0.03 0.03 0.03 0.04 0.05 0.07 0.06 0.05

GFSNGP_prec_precacc24_186.txt.gz
Total_Precipitation_Accumulation
0.10 0.04 0.04 0.11 0.10 0.10 0.20 0.21 0.41 0.15 0.09 0.05 0.08 0.04 0.01 0.00 0.00 0.00 0.00 0.00 0.01 0.01 0.02 0.03 0.04 0.10 0.15 0.23 0.33 0.40 0.30 0.22 0.25 0.34 0.46 0.49 0.46 0.39 0.29 0.16 0.12 0.10 0.10 0.11
0.10 0.02 0.03 0.04 0.01 0.01 0.03 0.04 0.05 0.02 0.01 0.00 0.05 0.02 0.00 0.00 0.00 0.00 0.00 0.00 0.00 0.00 0.00 0.00 0.01 0.01 0.03 0.11 0.32 0.53 0.35 0.22 0.31 0.35 0.36 0.38 0.42 0.38 0.30 0.18 0.09 0.04 0.02 0.02
0.16 0.04 0.08 0.06 0.00 0.00 0.00 0.01 0.02 0.02 0.00 0.00 0.00 0.00 0.00 0.00 0.00 0.00 0.00 0.00 0.00 0.00 0.00 0.00 0.00 0.00 0.00 0.01 0.04 0.22 0.52 0.56 0.37 0.47 0.47 0.41 0.33 0.31 0.31 0.25 0.16 0.09 0.05 0.04
0.12 0.03 0.15 0.04 0.02 0.04 0.04 0.03 0.02 0.02 0.01 0.00 0.00 0.00 0.00 0.00 0.00 0.00 0.00 0.00 0.00 0.01 0.02 0.02 0.01 0.00 0.00 0.00 0.01 0.00 0.05 0.25 0.58 0.60 0.57 0.47 0.37 0.27 0.22 0.20 0.19 0.18 0.12 0.09
0.11 0.05 0.05 0.00 0.00 0.02 0.09 0.08 0.05 0.08 0.08 0.09 0.05 0.04 0.05 0.01 0.01 0.01 0.01 0.01 0.01 0.01 0.02 0.02 0.02 0.01 0.00 0.00 0.01 0.01 0.00 0.01 0.10 0.24 0.47 0.47 0.42 0.33 0.22 0.18 0.19 0.16 0.10 0.05
0.13 0.14 0.04 0.00 0.00 0.01 0.06 0.07 0.02 0.03 0.04 0.04 0.04 0.04 0.06 0.07 0.04 0.03 0.02 0.01 0.00 0.01 0.01 0.02 0.02 0.02 0.01 0.01 0.02 0.02 0.00 0.00 0.01 0.04 0.13 0.23 0.28 0.32 0.27 0.16 0.19 0.20 0.18 0.10
0.37 0.34 0.09 0.07 0.02 0.01 0.16 0.15 0.04 0.04 0.05 0.03 0.06 0.10 0.09 0.11 0.14 0.04 0.04 0.07 0.06 0.02 0.01 0.01 0.01 0.01 0.02 0.03 0.06 0.03 0.03 0.02 0.01 0.04 0.10 0.18 0.23 0.30 0.32 0.24 0.22 0.23 0.22 0.19
0.48 0.64 0.36 0.17 0.18 0.28 0.30 0.20 0.13 0.08 0.05 0.09 0.11 0.16 0.20 0.19 0.08 0.08 0.06 0.05 0.11 0.14 0.11 0.09 0.05 0.03 0.04 0.05 0.04 0.05 0.05 0.03 0.01 0.02 0.09 0.21 0.32 0.41 0.45 0.38 0.27 0.23 0.19 0.18
0.44 0.35 0.20 0.15 0.14 0.26 0.19 0.18 0.17 0.15 0.25 0.36 0.25 0.16 0.11 0.04 0.03 0.02 0.01 0.01 0.03 0.08 0.18 0.19 0.13 0.14 0.11 0.06 0.08 0.12 0.12 0.09 0.03 0.05 0.13 0.24 0.38 0.47 0.54 0.55 0.36 0.26 0.21 0.17
0.11 0.03 0.01 0.02 0.03 0.09 0.07 0.08 0.23 0.18 0.17 0.12 0.13 0.09 0.06 0.01 0.00 0.00 0.02 0.03 0.03 0.04 0.12 0.16 0.20 0.25 0.26 0.31 0.19 0.16 0.29 0.31 0.19 0.16 0.25 0.37 0.43 0.44 0.46 0.49 0.40 0.32 0.27 0.28
0.03 0.01 0.01 0.01 0.01 0.03 0.06 0.08 0.05 0.02 0.03 0.04 0.11 0.10 0.01 0.01 0.00 0.00 0.01 0.01 0.02 0.04 0.08 0.22 0.16 0.21 0.21 0.38 0.44 0.33 0.31 0.46 0.55 0.45 0.41 0.44 0.46 0.42 0.44 0.47 0.38 0.37 0.31 0.29
0.11 0.05 0.12 0.20 0.23 0.19 0.20 0.07 0.01 0.01 0.05 0.09 0.08 0.04 0.01 0.01 0.00 0.01 0.00 0.00 0.00 0.00 0.04 0.09 0.03 0.03 0.04 0.05 0.22 0.31 0.28 0.31 0.40 0.45 0.49 0.52 0.54 0.59 0.63 0.60 0.62 0.51 0.36 0.30
0.03 0.01 0.02 0.09 0.10 0.05 0.06 0.04 0.08 0.08 0.10 0.10 0.05 0.02 0.02 0.01 0.03 0.02 0.00 0.00 0.00 0.00 0.00 0.00 0.00 0.00 0.00 0.00 0.02 0.01 0.04 0.08 0.15 0.22 0.30 0.34 0.40 0.46 0.49 0.59 0.54 0.38 0.32 0.23
0.05 0.15 0.14 0.02 0.01 0.08 0.13 0.10 0.17 0.14 0.12 0.20 0.16 0.06 0.04 0.04 0.02 0.00 0.00 0.00 0.00 0.00 0.00 0.00 0.01 0.00 0.00 0.00 0.04 0.03 0.04 0.09 0.13 0.15 0.14 0.16 0.17 0.21 0.25 0.31 0.29 0.30 0.28 0.15
0.00 0.02 0.07 0.03 0.00 0.01 0.01 0.01 0.08 0.20 0.09 0.14 0.24 0.18 0.12 0.09 0.02 0.00 0.00 0.01 0.01 0.01 0.00 0.01 0.02 0.02 0.02 0.05 0.10 0.10 0.08 0.08 0.11 0.14 0.13 0.14 0.13 0.15 0.20 0.21 0.21 0.24 0.22 0.23
0.01 0.03 0.05 0.02 0.00 0.00 0.01 0.00 0.03 0.15 0.16 0.03 0.03 0.02 0.01 0.02 0.06 0.08 0.08 0.09 0.16 0.13 0.09 0.06 0.04 0.06 0.08 0.12 0.15 0.17 0.12 0.12 0.13 0.13 0.11 0.12 0.12 0.12 0.14 0.14 0.15 0.14 0.11 0.12
0.17 0.10 0.05 0.05 0.01 0.01 0.05 0.10 0.20 0.21 0.16 0.08 0.02 0.02 0.01 0.01 0.00 0.00 0.01 0.01 0.02 0.07 0.07 0.05 0.09 0.11 0.12 0.11 0.11 0.10 0.07 0.07 0.11 0.16 0.16 0.12 0.11 0.10 0.11 0.11 0.10 0.11 0.11 0.10
0.15 0.36 0.20 0.12 0.02 0.03 0.07 0.13 0.19 0.14 0.06 0.01 0.02 0.03 0.02 0.01 0.01 0.01 0.01 0.02 0.02 0.06 0.15 0.03 0.06 0.12 0.14 0.13 0.10 0.07 0.04 0.04 0.04 0.06 0.05 0.07 0.07 0.07 0.07 0.07 0.06 0.06 0.06 0.07
0.16 0.32 0.13 0.11 0.04 0.06 0.08 0.02 0.01 0.01 0.01 0.01 0.01 0.01 0.01 0.01 0.02 0.02 0.01 0.02 0.02 0.03 0.11 0.21 0.10 0.05 0.03 0.03 0.03 0.03 0.03 0.02 0.01 0.01 0.01 0.03 0.04 0.04 0.03 0.04 0.05 0.05 0.05 0.05
0.31 0.23 0.24 0.10 0.04 0.02 0.01 0.01 0.01 0.01 0.01 0.01 0.01 0.00 0.00 0.01 0.01 0.01 0.01 0.02 0.01 0.01 0.00 0.03 0.15 0.22 0.28 0.13 0.03 0.01 0.00 0.00 0.00 0.01 0.01 0.02 0.04 0.05 0.04 0.03 0.03 0.06 0.06 0.04
0.02 0.02 0.01 0.00 0.01 0.00 0.00 0.00 0.00 0.00 0.00 0.01 0.01 0.01 0.01 0.01 0.00 0.00 0.00 0.00 0.00 0.00 0.01 0.02 0.03 0.06 0.13 0.19 0.17 0.07 0.02 0.00 0.01 0.02 0.02 0.03 0.04 0.06 0.06 0.06 0.06 0.07 0.07 0.05
0.00 0.00 0.00 0.00 0.00 0.00 0.01 0.00 0.00 0.00 0.00 0.01 0.02 0.01 0.02 0.03 0.03 0.06 0.09 0.08 0.07 0.07 0.06 0.05 0.05 0.03 0.03 0.05 0.09 0.13 0.09 0.04 0.03 0.03 0.04 0.05 0.05 0.06 0.07 0.06 0.06 0.07 0.07 0.06
0.01 0.01 0.00 0.00 0.00 0.01 0.01 0.00 0.01 0.00 0.01 0.03 0.11 0.18 0.21 0.21 0.19 0.17 0.18 0.23 0.24 0.26 0.25 0.28 0.26 0.17 0.13 0.09 0.06 0.05 0.07 0.05 0.04 0.04 0.03 0.05 0.05 0.05 0.06 0.06 0.07 0.07 0.07 0.06
0.01 0.00 0.00 0.00 0.01 0.00 0.01 0.01 0.00 0.01 0.01 0.02 0.03 0.06 0.08 0.11 0.14 0.18 0.19 0.22 0.23 0.24 0.25 0.24 0.21 0.18 0.12 0.10 0.07 0.06 0.05 0.04 0.04 0.04 0.03 0.04 0.04 0.05 0.06 0.06 0.07 0.07 0.07 0.06
0.00 0.00 0.00 0.00 0.00 0.00 0.00 0.00 0.01 0.01 0.01 0.01 0.02 0.03 0.03 0.02 0.03 0.08 0.08 0.11 0.12 0.11 0.17 0.22 0.20 0.19 0.16 0.13 0.09 0.05 0.03 0.02 0.02 0.02 0.02 0.02 0.04 0.04 0.06 0.04 0.04 0.04 0.05 0.04
0.00 0.00 0.00 0.00 0.00 0.00 0.01 0.01 0.00 0.00 0.01 0.02 0.03 0.04 0.03 0.03 0.03 0.04 0.05 0.07 0.08 0.08 0.11 0.16 0.16 0.12 0.09 0.06 0.04 0.03 0.02 0.01 0.01 0.01 0.02 0.03 0.03 0.03 0.03 0.03 0.04 0.03 0.03 0.03
0.00 0.00 0.00 0.00 0.00 0.00 0.00 0.00 0.01 0.01 0.01 0.01 0.04 0.05 0.04 0.03 0.04 0.03 0.04 0.06 0.07 0.07 0.08 0.10 0.08 0.05 0.04 0.03 0.03 0.02 0.01 0.01 0.01 0.01 0.03 0.03 0.03 0.04 0.03 0.04 0.06 0.07 0.06 0.05